Regional Weather Roundup
Issued by NWS

Home | Current Version | Previous Version | Graphics & Text | Print | Product List | Glossary On
Versions: 1 2 3 4 5 6 7 8 9 10 11 12 13 14 15 16 17 18 19 20 21 22 23 24 25 26 27 28 29 30 31 32 33 34 35 36 37 38 39 40 41 42 43 44 45 46 47 48 49 50
000
ASUS45 KABQ 012001
RWRNM
NEW MEXICO REGIONAL WEATHER ROUNDUP
NATIONAL WEATHER SERVICE ALBUQUERQUE NM
200 PM MDT TUE SEP 01 2015

NOTE: "FAIR" MEANS FEW OR NO CLOUDS BELOW 12,000 FEET AGL WITH NO
       SIGNIFICANT WEATHER OR OBSTRUCTIONS TO VISION.

      THIS PRODUCT IS RELEASED AS TWO VERSIONS.  ONE VERSION NEAR
      THE TOP OF THE HOUR CONTAINING PRELIMINARY DATA FROM ALBUQUERQUE
      AND OTHER STATIONS.  A FINAL VERSION WITH ADDITIONAL DATA IS
      ISSUED ABOUT 10 MINUTES AFTER THE HOUR.

NMZ501-503-504-510>518-012100-
NORTHWEST PLATEAU/NORTHCENTRAL MOUNTAINS

CITY           SKY/WX    TMP DP  RH WIND       PRES   REMARKS
FARMINGTON     SUNNY     84  44  24 SW9       30.16F
SANTA FE       MOSUNNY   83  42  23 W8G17     30.22F
TAOS           CLOUDY    75  39  27 W7        30.29S
ANGEL FIRE     MOCLDY    69  43  39 SW8G17    30.37S

$$
NMZ402-403-502-505>509-012100-
WESTCENTRAL MOUNTAINS/SOUTHWEST MOUNTAINS

CITY           SKY/WX    TMP DP  RH WIND       PRES   REMARKS
GALLUP         PTSUNNY   77  44  30 VRB3      30.25F
GRANTS         CLOUDY    77  46  33 W3        30.27F
SILVER CITY      N/A     84  46  26 SW6       30.20F

$$
NMZ407-409-411-412-012100-
SOUTHERN DESERTS

CITY           SKY/WX    TMP DP  RH WIND       PRES   REMARKS
DEMING         SUNNY     92  49  22 VRB6      30.09F
HOLLOMAN AFB   MOSUNNY   95  34  11 W8        30.04F
ALAMOGORDO     MOSUNNY   93  39  15 W10       30.06F
T OR C         MOSUNNY   89  45  21 SW6       30.10F

$$
NMZ519>523-012100-
CENTRAL VALLEYS/CENTRAL HIGHLANDS

CITY           SKY/WX    TMP DP  RH WIND       PRES   REMARKS
ALBUQUERQUE    PTSUNNY   86  43  22 W7        30.16F
DOUBLE EAGLE   PTSUNNY   84  46  26 VRB7      30.20F
MORIARTY ARPT  MOCLDY    83  40  21 W5        30.23S
CLINES CORNERS MOSUNNY   82  44  26 W12G22    30.26F
BELEN          FAIR      89  42  19 CALM      30.15F
SOCORRO        NOT AVBL

$$
NMZ524>526-539-540-012100-
SOUTHCENTRAL MOUNTAINS

CITY           SKY/WX    TMP DP  RH WIND       PRES   REMARKS
RUIDOSO        MOSUNNY   82  39  21 MISG      30.28F

$$
NMZ527>531-012100-
NORTHEAST HIGHLANDS/NORTHEAST PLAINS

CITY           SKY/WX    TMP DP  RH WIND       PRES   REMARKS
LAS VEGAS      PTSUNNY   73  51  46 N14       30.24F THUNDER
RATON          PTSUNNY   86  38  18 S16       30.15F
CLAYTON        SUNNY     89  55  31 S14G20    30.10F

$$
NMZ532>537-012100-
EASTCENTRAL PLAINS

CITY           SKY/WX    TMP DP  RH WIND       PRES   REMARKS
TUCUMCARI      SUNNY     95  51  22 S13G20    30.04F
CANNON AFB     SUNNY     91  52  26 S15G25    30.08F
CLOVIS AIRPORT SUNNY     90  54  29 S20G31    30.11S

$$
NMZ028-029-538-012100-
SOUTHEAST PLAINS

CITY           SKY/WX    TMP DP  RH WIND       PRES   REMARKS
ROSWELL        SUNNY     94  49  21 S13G22    30.04F
ARTESIA        SUNNY     93  52  24 SE14G21   30.04F
CARLSBAD       NOT AVBL
HOBBS          SUNNY     90  50  25 SE15G22   30.08


$$


USA.gov is the U.S. government's official web portal to all federal, state and local government web resources and services.